Time,TemperatureF,DewpointF,PressureIn,WindDirection,WindDirectionDegrees,WindSpeedMPH,WindSpeedGustMPH,Humidity,HourlyPrecipIn,Conditions,Clouds,dailyrainin,SoftwareType,DateUTC
2013-03-20 00:01:00,26.3,24.3,29.67,NNE,32,2.0,2.0,92,0.00,,,0.19,Wunderground v.1.15,2013-03-20 04:01:00,
2013-03-20 00:11:00,26.0,24.0,29.67,NW,317,2.0,11.0,92,0.00,,,0.19,Wunderground v.1.15,2013-03-20 04:11:00,
2013-03-20 00:31:00,25.6,23.6,29.67,North,0,1.0,1.0,92,0.00,,,0.19,Wunderground v.1.15,2013-03-20 04:31:00,
2013-03-20 00:51:00,25.4,23.4,29.68,North,354,1.0,6.0,92,0.00,,,0.19,Wunderground v.1.15,2013-03-20 04:51:00,
2013-03-20 01:01:00,25.6,23.6,29.68,NNW,342,1.0,6.0,92,0.00,,,0.00,Wunderground v.1.15,2013-03-20 05:01:00,
2013-03-20 01:11:00,25.6,23.6,29.68,NW,304,1.0,4.0,92,0.00,,,0.00,Wunderground v.1.15,2013-03-20 05:11:00,
2013-03-20 01:51:00,25.4,22.9,29.68,NW,312,1.0,1.0,90,0.00,,,0.00,Wunderground v.1.15,2013-03-20 05:51:00,
2013-03-20 02:01:00,25.4,22.9,29.68,NW,311,1.0,5.0,90,0.00,,,0.00,Wunderground v.1.15,2013-03-20 06:01:00,
2013-03-20 02:31:00,25.3,22.8,29.68,NNW,347,0.0,4.0,90,0.00,,,0.00,Wunderground v.1.15,2013-03-20 06:31:00,
2013-03-20 02:51:00,25.0,22.5,29.68,WNW,301,1.0,1.0,90,0.00,,,0.00,Wunderground v.1.15,2013-03-20 06:51:00,
2013-03-20 03:01:00,25.0,22.7,29.69,WNW,301,0.0,3.0,91,0.00,,,0.00,Wunderground v.1.15,2013-03-20 07:01:00,
2013-03-20 03:11:00,25.1,22.8,29.69,WNW,301,0.0,3.0,91,0.00,,,0.00,Wunderground v.1.15,2013-03-20 07:11:00,
2013-03-20 03:21:00,25.1,22.8,29.68,NW,315,0.0,3.0,91,0.00,,,0.00,Wunderground v.1.15,2013-03-20 07:21:00,
2013-03-20 03:31:00,25.0,22.7,29.68,NW,315,0.0,3.0,91,0.00,,,0.00,Wunderground v.1.15,2013-03-20 07:31:00,
2013-03-20 03:51:00,24.1,21.9,29.68,NW,315,0.0,2.0,91,0.00,,,0.00,Wunderground v.1.15,2013-03-20 07:51:00,
2013-03-20 04:01:00,23.9,21.7,29.68,WSW,241,1.0,2.0,91,0.00,,,0.00,Wunderground v.1.15,2013-03-20 08:01:00,
2013-03-20 04:11:00,23.5,21.3,29.68,WSW,238,0.0,3.0,91,0.00,,,0.00,Wunderground v.1.15,2013-03-20 08:11:00,
2013-03-20 04:31:00,23.3,21.3,29.68,SSW,213,0.0,3.0,92,0.00,,,0.00,Wunderground v.1.15,2013-03-20 08:31:00,
2013-03-20 04:41:00,23.8,21.8,29.68,SSW,213,0.0,2.0,92,0.00,,,0.00,Wunderground v.1.15,2013-03-20 08:41:00,
2013-03-20 04:51:00,24.5,22.8,29.69,SSW,213,1.0,1.0,93,0.00,,,0.00,Wunderground v.1.15,2013-03-20 08:51:00,
2013-03-20 05:01:00,24.8,23.1,29.69,SW,214,0.0,2.0,93,0.00,,,0.00,Wunderground v.1.15,2013-03-20 09:01:00,
2013-03-20 05:11:00,25.0,23.3,29.69,SW,214,0.0,2.0,93,0.00,,,0.00,Wunderground v.1.15,2013-03-20 09:11:00,
2013-03-20 05:31:00,25.3,23.6,29.70,SW,226,1.0,3.0,93,0.00,,,0.00,Wunderground v.1.15,2013-03-20 09:31:00,
2013-03-20 05:41:00,25.6,23.9,29.70,WSW,243,1.0,2.0,93,0.00,,,0.00,Wunderground v.1.15,2013-03-20 09:41:00,
2013-03-20 06:11:00,26.0,24.0,29.69,WSW,252,1.0,1.0,92,0.00,,,0.00,Wunderground v.1.15,2013-03-20 10:11:00,
2013-03-20 06:31:00,26.3,23.5,29.70,WNW,286,1.0,1.0,89,0.00,,,0.00,Wunderground v.1.15,2013-03-20 10:31:00,
2013-03-20 06:41:00,26.4,23.3,29.70,WNW,291,1.0,6.0,88,0.00,,,0.00,Wunderground v.1.15,2013-03-20 10:41:00,
2013-03-20 07:01:00,26.4,23.1,29.70,West,259,1.0,6.0,87,0.00,,,0.00,Wunderground v.1.15,2013-03-20 11:01:00,
2013-03-20 07:11:00,26.6,23.0,29.70,West,263,1.0,6.0,86,0.00,,,0.00,Wunderground v.1.15,2013-03-20 11:11:00,
2013-03-20 07:31:00,26.4,22.5,29.71,SSW,204,1.0,6.0,85,0.00,,,0.00,Wunderground v.1.15,2013-03-20 11:31:00,
2013-03-20 07:41:00,26.4,22.5,29.71,West,260,2.0,6.0,85,0.00,,,0.00,Wunderground v.1.15,2013-03-20 11:41:00,
2013-03-20 07:51:00,26.6,22.4,29.72,SW,236,3.0,3.0,84,0.00,,,0.00,Wunderground v.1.15,2013-03-20 11:51:00,
2013-03-20 08:01:00,26.6,22.1,29.72,West,267,3.0,3.0,83,0.00,,,0.00,Wunderground v.1.15,2013-03-20 12:01:00,
2013-03-20 08:11:00,26.6,22.1,29.72,WNW,290,2.0,2.0,83,0.00,,,0.00,Wunderground v.1.15,2013-03-20 12:11:00,
2013-03-20 08:21:00,26.6,22.1,29.72,WNW,296,2.0,13.0,83,0.00,,,0.00,Wunderground v.1.15,2013-03-20 12:21:00,
2013-03-20 08:31:00,26.6,22.1,29.72,WNW,298,2.0,13.0,83,0.00,,,0.00,Wunderground v.1.15,2013-03-20 12:31:00,
2013-03-20 08:41:00,26.9,22.4,29.72,NW,314,3.0,3.0,83,0.00,,,0.00,Wunderground v.1.15,2013-03-20 12:41:00,
2013-03-20 08:51:00,27.3,22.5,29.71,West,276,3.0,3.0,82,0.00,,,0.00,Wunderground v.1.15,2013-03-20 12:51:00,
2013-03-20 09:01:00,27.8,22.7,29.71,SSW,212,2.0,6.0,81,0.00,,,0.00,Wunderground v.1.15,2013-03-20 13:01:00,
2013-03-20 09:11:00,28.1,23.0,29.71,South,174,2.0,2.0,81,0.00,,,0.00,Wunderground v.1.15,2013-03-20 13:11:00,
2013-03-20 09:21:00,28.4,22.7,29.70,West,273,3.0,9.0,79,0.00,,,0.00,Wunderground v.1.15,2013-03-20 13:21:00,
2013-03-20 09:31:00,28.8,22.8,29.71,WSW,250,4.0,4.0,78,0.00,,,0.00,Wunderground v.1.15,2013-03-20 13:31:00,
2013-03-20 09:41:00,29.5,23.5,29.71,WNW,296,4.0,14.0,78,0.00,,,0.00,Wunderground v.1.15,2013-03-20 13:41:00,
2013-03-20 09:51:00,30.1,23.8,29.71,SW,231,4.0,4.0,77,0.00,,,0.00,Wunderground v.1.15,2013-03-20 13:51:00,
2013-03-20 10:01:00,30.4,23.4,29.71,NW,305,4.0,4.0,75,0.00,,,0.00,Wunderground v.1.15,2013-03-20 14:01:00,
2013-03-20 10:11:00,30.7,22.7,29.71,West,264,4.0,14.0,72,0.00,,,0.00,Wunderground v.1.15,2013-03-20 14:11:00,
2013-03-20 10:21:00,31.6,24.3,29.71,West,274,4.0,4.0,74,0.00,,,0.00,Wunderground v.1.15,2013-03-20 14:21:00,
2013-03-20 10:31:00,32.1,24.7,29.71,West,265,4.0,4.0,74,0.00,,,0.00,Wunderground v.1.15,2013-03-20 14:31:00,
2013-03-20 10:41:00,32.4,24.7,29.71,West,269,4.0,4.0,73,0.00,,,0.00,Wunderground v.1.15,2013-03-20 14:41:00,
2013-03-20 10:51:00,32.7,24.0,29.71,West,272,4.0,4.0,70,0.00,,,0.00,Wunderground v.1.15,2013-03-20 14:51:00,
2013-03-20 11:01:00,32.9,23.8,29.71,NNE,14,4.0,4.0,69,0.00,,,0.00,Wunderground v.1.15,2013-03-20 15:01:00,
2013-03-20 11:11:00,32.8,23.0,29.71,West,278,5.0,13.0,67,0.00,,,0.00,Wunderground v.1.15,2013-03-20 15:11:00,
2013-03-20 11:31:00,32.7,22.9,29.72,West,281,4.0,13.0,67,0.00,,,0.00,Wunderground v.1.15,2013-03-20 15:31:00,
2013-03-20 11:51:00,33.2,22.7,29.72,WSW,252,4.0,12.0,65,0.00,,,0.01,Wunderground v.1.15,2013-03-20 15:51:00,
2013-03-20 12:01:00,33.4,22.5,29.71,SSW,212,5.0,12.0,64,0.04,,,0.02,Wunderground v.1.15,2013-03-20 16:01:00,
2013-03-20 12:21:00,32.9,22.4,29.72,WSW,245,5.0,5.0,65,0.13,,,0.05,Wunderground v.1.15,2013-03-20 16:21:00,
2013-03-20 12:31:00,33.1,22.2,29.72,WSW,258,5.0,5.0,64,0.15,,,0.07,Wunderground v.1.15,2013-03-20 16:31:00,
2013-03-20 12:51:00,34.0,22.3,29.72,NW,308,5.0,5.0,62,0.08,,,0.10,Wunderground v.1.15,2013-03-20 16:51:00,
2013-03-20 13:01:00,34.7,22.6,29.72,SW,221,4.0,22.0,61,0.08,,,0.11,Wunderground v.1.15,2013-03-20 17:01:00,
2013-03-20 13:11:00,35.2,22.3,29.72,West,259,6.0,6.0,59,0.11,,,0.13,Wunderground v.1.15,2013-03-20 17:11:00,
2013-03-20 13:21:00,34.9,22.4,29.71,NW,309,6.0,6.0,60,0.16,,,0.16,Wunderground v.1.15,2013-03-20 17:21:00,
2013-03-20 13:51:00,35.2,22.3,29.72,WSW,251,4.0,16.0,59,0.13,,,0.23,Wunderground v.1.15,2013-03-20 17:51:00,
2013-03-20 14:01:00,35.6,23.1,29.71,South,188,4.0,16.0,60,0.09,,,0.24,Wunderground v.1.15,2013-03-20 18:01:00,
2013-03-20 14:21:00,35.6,22.3,29.71,WNW,286,5.0,22.0,58,0.08,,,0.28,Wunderground v.1.15,2013-03-20 18:21:00,
2013-03-20 14:41:00,35.8,22.5,29.70,WNW,282,5.0,20.0,58,0.06,,,0.30,Wunderground v.1.15,2013-03-20 18:41:00,
2013-03-20 14:51:00,35.9,21.7,29.70,WNW,296,5.0,20.0,56,0.08,,,0.31,Wunderground v.1.15,2013-03-20 18:51:00,
2013-03-20 15:21:00,35.8,22.0,29.70,NW,315,4.0,17.0,57,0.07,,,0.35,Wunderground v.1.15,2013-03-20 19:21:00,
2013-03-20 16:11:00,37.6,20.6,29.70,SSW,201,5.0,16.0,50,0.09,,,0.40,Wunderground v.1.15,2013-03-20 20:11:00,
2013-03-20 16:21:00,37.5,22.3,29.70,NW,304,4.0,4.0,54,0.10,,,0.42,Wunderground v.1.15,2013-03-20 20:21:00,
2013-03-20 16:31:00,37.3,21.7,29.70,NW,316,4.0,16.0,53,0.07,,,0.43,Wunderground v.1.15,2013-03-20 20:31:00,
2013-03-20 16:51:00,37.6,21.5,29.71,WSW,257,4.0,14.0,52,0.06,,,0.45,Wunderground v.1.15,2013-03-20 20:51:00,
2013-03-20 17:01:00,36.5,21.0,29.71,NW,325,5.0,14.0,53,0.07,,,0.46,Wunderground v.1.15,2013-03-20 21:01:00,
2013-03-20 17:11:00,36.9,21.8,29.71,WNW,290,4.0,25.0,54,0.04,,,0.46,Wunderground v.1.15,2013-03-20 21:11:00,
2013-03-20 17:21:00,36.9,22.7,29.71,West,262,3.0,3.0,56,0.00,,,0.47,Wunderground v.1.15,2013-03-20 21:21:00,
2013-03-20 17:41:00,36.8,21.3,29.71,WNW,293,3.0,11.0,53,0.00,,,0.48,Wunderground v.1.15,2013-03-20 21:41:00,
2013-03-20 17:51:00,36.2,20.2,29.72,WSW,247,4.0,4.0,52,0.00,,,0.48,Wunderground v.1.15,2013-03-20 21:51:00,
2013-03-20 18:11:00,35.6,19.2,29.73,NW,314,4.0,4.0,51,0.00,,,0.49,Wunderground v.1.15,2013-03-20 22:11:00,
2013-03-20 18:21:00,35.6,20.6,29.73,WNW,285,3.0,16.0,54,0.00,,,0.49,Wunderground v.1.15,2013-03-20 22:21:00,
2013-03-20 18:41:00,35.3,19.9,29.74,West,262,3.0,3.0,53,0.00,,,0.49,Wunderground v.1.15,2013-03-20 22:41:00,
2013-03-20 18:51:00,35.3,19.4,29.75,West,264,3.0,3.0,52,0.00,,,0.49,Wunderground v.1.15,2013-03-20 22:51:00,
2013-03-20 19:01:00,35.2,19.8,29.75,SSW,207,3.0,13.0,53,0.00,,,0.49,Wunderground v.1.15,2013-03-20 23:01:00,
2013-03-20 19:11:00,34.6,20.1,29.75,WSW,256,2.0,2.0,55,0.00,,,0.49,Wunderground v.1.15,2013-03-20 23:11:00,
2013-03-20 19:21:00,33.8,19.7,29.76,SW,227,2.0,12.0,56,0.00,,,0.49,Wunderground v.1.15,2013-03-20 23:21:00,
2013-03-20 19:31:00,33.7,20.1,29.76,SW,233,2.0,12.0,57,0.00,,,0.49,Wunderground v.1.15,2013-03-20 23:31:00,
2013-03-20 19:41:00,33.7,20.1,29.76,WSW,254,3.0,3.0,57,0.00,,,0.49,Wunderground v.1.15,2013-03-20 23:41:00,
2013-03-20 19:51:00,33.2,20.0,29.77,SW,226,1.0,1.0,58,0.00,,,0.49,Wunderground v.1.15,2013-03-20 23:51:00,
2013-03-20 20:11:00,31.0,21.3,29.77,SW,235,0.0,9.0,67,0.00,,,0.49,Wunderground v.1.15,2013-03-21 00:11:00,
2013-03-20 20:21:00,30.0,22.1,29.77,SW,235,0.0,9.0,72,0.00,,,0.49,Wunderground v.1.15,2013-03-21 00:21:00,
2013-03-20 20:31:00,29.1,21.8,29.77,SW,235,0.0,9.0,74,0.00,,,0.49,Wunderground v.1.15,2013-03-21 00:31:00,
2013-03-20 20:41:00,28.5,22.5,29.77,SW,235,0.0,1.0,78,0.00,,,0.49,Wunderground v.1.15,2013-03-21 00:41:00,
2013-03-20 20:51:00,28.1,22.4,29.77,SW,235,0.0,1.0,79,0.00,,,0.49,Wunderground v.1.15,2013-03-21 00:51:00,
2013-03-20 21:11:00,27.2,22.1,29.77,SW,235,0.0,0.0,81,0.00,,,0.49,Wunderground v.1.15,2013-03-21 01:11:00,
2013-03-20 21:21:00,26.7,21.7,29.78,SW,235,0.0,0.0,81,0.00,,,0.49,Wunderground v.1.15,2013-03-21 01:21:00,
2013-03-20 21:31:00,26.3,21.6,29.78,SW,235,0.0,0.0,82,0.00,,,0.49,Wunderground v.1.15,2013-03-21 01:31:00,
2013-03-20 21:41:00,26.0,21.5,29.78,SW,235,0.0,0.0,83,0.00,,,0.49,Wunderground v.1.15,2013-03-21 01:41:00,
2013-03-20 21:51:00,25.6,21.2,29.79,SW,235,0.0,0.0,83,0.00,,,0.49,Wunderground v.1.15,2013-03-21 01:51:00,
2013-03-20 22:01:00,25.1,20.7,29.79,SW,235,0.0,0.0,83,0.00,,,0.49,Wunderground v.1.15,2013-03-21 02:01:00,
2013-03-20 22:11:00,25.1,20.9,29.79,SW,235,0.0,0.0,84,0.00,,,0.49,Wunderground v.1.15,2013-03-21 02:11:00,
2013-03-20 22:21:00,24.7,20.8,29.79,SW,235,0.0,0.0,85,0.00,,,0.49,Wunderground v.1.15,2013-03-21 02:21:00,
2013-03-20 22:31:00,24.4,20.5,29.79,SW,235,0.0,0.0,85,0.00,,,0.49,Wunderground v.1.15,2013-03-21 02:31:00,
2013-03-20 22:41:00,24.1,20.5,29.79,SW,235,0.0,0.0,86,0.00,,,0.49,Wunderground v.1.15,2013-03-21 02:41:00,
2013-03-20 23:11:00,23.3,20.0,29.79,SW,235,0.0,0.0,87,0.00,,,0.49,Wunderground v.1.15,2013-03-21 03:11:00,
2013-03-20 23:21:00,23.2,19.9,29.79,SW,235,0.0,0.0,87,0.00,,,0.49,Wunderground v.1.15,2013-03-21 03:21:00,
2013-03-20 23:31:00,23.0,20.0,29.79,SW,235,0.0,0.0,88,0.00,,,0.49,Wunderground v.1.15,2013-03-21 03:31:00,